Total_Precipitation_Accumulation
0.50 0.56 0.65 0.79 0.95 1.07 1.19 1.32 1.58 1.71 1.91 1.98 1.93 1.85 1.94 1.96 1.97 1.96 1.88 1.77 1.66 1.52 1.36 1.20 1.10 1.07 0.98 0.89 0.80 0.73 0.73 0.72 0.69 0.69 0.64 0.59 0.55 0.49 0.45 0.48 0.60 0.71 0.72
0.59 0.62 0.75 0.90 0.96 1.00 1.12 1.27 1.50 1.64 1.72 1.70 1.69 1.68 1.70 1.78 1.84 1.89 1.95 1.95 1.85 1.69 1.56 1.39 1.23 1.12 1.08 1.00 0.90 0.81 0.76 0.72 0.66 0.69 0.73 0.65 0.59 0.52 0.41 0.35 0.42 0.53 0.62
0.53 0.55 0.67 0.91 1.01 1.01 1.09 1.21 1.40 1.55 1.71 1.83 1.89 1.88 1.99 2.00 1.90 1.81 1.83 1.90 1.89 1.79 1.65 1.53 1.44 1.34 1.21 1.12 1.05 0.98 0.90 0.83 0.74 0.66 0.85 0.89 0.68 0.48 0.36 0.33 0.34 0.36 0.41
0.51 0.52 0.60 0.82 0.99 0.99 1.13 1.28 1.44 1.64 1.73 1.90 1.94 1.77 1.69 1.73 1.64 1.61 1.58 1.69 1.83 1.82 1.72 1.66 1.61 1.48 1.36 1.21 1.12 1.12 1.10 1.07 1.02 0.87 0.77 0.75 0.69 0.71 0.52 0.33 0.30 0.28 0.28
0.52 0.51 0.55 0.74 0.95 1.05 1.15 1.34 1.48 1.69 1.80 1.86 1.89 1.76 1.61 1.52 1.58 1.72 1.76 1.69 1.70 1.80 1.77 1.68 1.64 1.56 1.43 1.34 1.26 1.15 1.13 1.14 1.14 1.06 0.92 0.82 0.69 0.65 0.75 0.54 0.35 0.34 0.32
0.54 0.57 0.60 0.74 0.90 1.03 1.17 1.30 1.52 1.67 1.87 1.89 1.85 1.69 1.53 1.44 1.47 1.57 1.77 1.84 1.80 1.82 1.84 1.74 1.67 1.57 1.42 1.34 1.35 1.28 1.19 1.14 1.13 1.10 1.03 0.99 0.94 0.76 0.78 0.72 0.48 0.42 0.40
0.59 0.60 0.62 0.71 0.80 0.94 1.10 1.24 1.42 1.67 1.85 1.94 1.80 1.63 1.50 1.41 1.38 1.41 1.52 1.65 1.73 1.78 1.79 1.76 1.66 1.55 1.45 1.32 1.31 1.33 1.29 1.23 1.23 1.22 1.14 1.06 0.99 0.90 0.93 0.96 0.77 0.59 0.48
0.64 0.63 0.60 0.68 0.76 0.88 1.03 1.20 1.34 1.59 1.82 1.92 1.83 1.68 1.51 1.43 1.39 1.40 1.41 1.46 1.42 1.47 1.60 1.71 1.75 1.58 1.40 1.33 1.29 1.28 1.24 1.25 1.26 1.21 1.19 1.17 1.06 1.02 1.07 1.15 1.22 1.10 0.75
0.67 0.69 0.66 0.71 0.75 0.86 0.99 1.16 1.30 1.47 1.72 1.92 1.91 1.79 1.61 1.49 1.42 1.39 1.39 1.45 1.40 1.32 1.38 1.52 1.67 1.76 1.65 1.47 1.36 1.31 1.24 1.24 1.27 1.24 1.24 1.25 1.14 1.06 1.04 1.10 1.30 1.59 1.35
0.63 0.69 0.69 0.72 0.78 0.88 1.00 1.12 1.26 1.39 1.57 1.78 1.88 1.84 1.79 1.63 1.55 1.49 1.42 1.39 1.43 1.40 1.33 1.33 1.43 1.53 1.61 1.62 1.53 1.45 1.33 1.29 1.26 1.26 1.29 1.32 1.31 1.27 1.19 1.14 1.15 1.34 1.53
0.65 0.73 0.77 0.75 0.78 0.90 1.02 1.08 1.18 1.35 1.52 1.62 1.70 1.76 1.86 1.71 1.66 1.64 1.55 1.42 1.36 1.42 1.41 1.36 1.42 1.46 1.48 1.51 1.57 1.54 1.48 1.46 1.41 1.36 1.37 1.37 1.40 1.49 1.49 1.41 1.34 1.29 1.40
0.63 0.65 0.70 0.73 0.73 0.82 1.00 1.11 1.18 1.23 1.42 1.56 1.62 1.70 1.82 1.84 1.71 1.68 1.64 1.48 1.36 1.35 1.40 1.43 1.44 1.50 1.55 1.54 1.61 1.60 1.54 1.59 1.57 1.47 1.42 1.40 1.41 1.50 1.56 1.64 1.58 1.44 1.35
0.62 0.62 0.63 0.67 0.73 0.79 0.93 1.06 1.14 1.16 1.29 1.51 1.55 1.63 1.73 1.78 1.73 1.65 1.67 1.60 1.51 1.51 1.49 1.53 1.57 1.60 1.65 1.69 1.73 1.76 1.75 1.76 1.75 1.69 1.65 1.53 1.53 1.58 1.56 1.61 1.65 1.55 1.46
0.62 0.61 0.63 0.66 0.73 0.81 0.90 0.97 1.04 1.14 1.25 1.47 1.59 1.58 1.62 1.64 1.67 1.68 1.65 1.69 1.72 1.78 1.81 1.77 1.75 1.77 1.84 1.95 2.03 2.07 2.04 1.98 1.92 1.87 1.82 1.75 1.68 1.68 1.69 1.72 1.67 1.62 1.63
0.63 0.62 0.66 0.69 0.74 0.84 0.92 0.91 0.97 1.05 1.19 1.37 1.51 1.56 1.56 1.66 1.75 1.78 1.80 1.77 1.85 1.90 1.87 1.88 1.89 1.84 1.99 2.30 2.44 2.31 2.12 1.96 1.87 1.79 1.75 1.77 1.88 1.90 1.95 2.02 1.90 1.79 1.87
0.63 0.65 0.68 0.71 0.76 0.83 0.90 0.89 0.89 0.99 1.12 1.28 1.37 1.44 1.56 1.67 1.83 1.87 1.93 1.92 1.92 1.96 1.94 1.89 1.88 1.85 1.92 2.38 2.53 2.13 1.79 1.71 1.74 1.71 1.59 1.56 1.75 1.82 1.91 2.04 2.02 2.03 2.11
0.55 0.61 0.69 0.74 0.77 0.81 0.84 0.88 0.88 0.89 0.99 1.16 1.27 1.34 1.49 1.58 1.68 1.73 1.76 1.81 1.76 1.74 1.78 1.83 1.74 1.68 1.79 2.19 2.29 1.97 1.52 1.40 1.46 1.50 1.47 1.41 1.44 1.64 1.58 1.73 1.81 1.85 1.99
0.51 0.53 0.65 0.71 0.70 0.75 0.81 0.83 0.83 0.84 0.93 1.05 1.16 1.18 1.32 1.46 1.50 1.56 1.59 1.62 1.57 1.58 1.67 1.66 1.53 1.44 1.51 1.89 2.02 1.82 1.40 1.33 1.36 1.38 1.38 1.35 1.35 1.48 1.68 1.76 1.68 1.57 1.63
0.50 0.52 0.60 0.65 0.65 0.71 0.77 0.77 0.78 0.79 0.86 0.95 1.02 1.04 1.11 1.29 1.32 1.40 1.48 1.47 1.50 1.50 1.50 1.47 1.40 1.31 1.35 1.67 1.94 1.78 1.32 1.36 1.36 1.35 1.38 1.33 1.26 1.59 1.82 1.77 1.69 1.56 1.53
0.48 0.52 0.58 0.58 0.61 0.67 0.69 0.69 0.71 0.73 0.80 0.86 0.94 0.95 0.98 1.08 1.10 1.16 1.24 1.29 1.31 1.38 1.40 1.38 1.32 1.27 1.24 1.51 1.87 1.87 1.38 1.38 1.36 1.34 1.39 1.53 1.46 1.65 1.74 1.62 1.67 1.72 1.51
0.53 0.52 0.55 0.58 0.62 0.66 0.68 0.68 0.68 0.70 0.74 0.77 0.82 0.87 0.92 0.99 0.99 1.02 1.07 1.15 1.21 1.28 1.33 1.35 1.29 1.19 1.19 1.30 1.62 1.98 1.66 1.46 1.37 1.36 1.38 1.41 1.60 1.62 1.67 1.66 1.60 1.77 1.63
0.54 0.53 0.56 0.60 0.61 0.62 0.61 0.61 0.68 0.67 0.68 0.74 0.80 0.85 0.89 0.92 0.93 0.95 1.02 1.05 1.16 1.30 1.31 1.28 1.28 1.23 1.20 1.24 1.41 1.73 1.87 1.72 1.48 1.39 1.24 1.27 1.49 1.52 1.62 1.60 1.65 1.73 1.65
0.52 0.52 0.56 0.61 0.61 0.61 0.59 0.60 0.65 0.66 0.67 0.71 0.77 0.84 0.89 0.89 0.94 0.96 1.02 1.08 1.18 1.30 1.30 1.24 1.22 1.22 1.19 1.25 1.45 1.47 1.56 1.69 1.54 1.46 1.50 1.40 1.44 1.44 1.40 1.46 1.57 1.55 1.46
0.47 0.47 0.51 0.57 0.60 0.61 0.62 0.62 0.65 0.67 0.69 0.72 0.73 0.79 0.89 0.94 0.94 0.97 1.01 1.04 1.10 1.26 1.31 1.27 1.24 1.16 1.13 1.25 1.47 1.42 1.36 1.49 1.54 1.56 1.57 1.52 1.49 1.45 1.38 1.38 1.36 1.32 1.39
0.46 0.44 0.47 0.53 0.59 0.60 0.61 0.63 0.68 0.73 0.75 0.72 0.72 0.76 0.86 0.92 0.93 0.96 0.99 1.03 1.04 1.25 1.43 1.34 1.33 1.31 1.32 1.40 1.63 1.62 1.53 1.55 1.60 1.64 1.64 1.55 1.49 1.48 1.39 1.30 1.25 1.28 1.36
0.45 0.44 0.44 0.50 0.55 0.57 0.61 0.65 0.74 0.78 0.78 0.77 0.77 0.79 0.86 0.88 0.89 0.92 0.99 1.09 1.12 1.20 1.21 1.25 1.32 1.29 1.41 1.50 1.46 1.53 1.58 1.60 1.66 1.68 1.63 1.44 1.33 1.31 1.27 1.25 1.24 1.20 1.20